This demonstration page uses our WeatherBlox Daily Observations layout. Learn more.

Left ArrowRight Arrow

41.86663, -103.66717

Hourly Observations for November 3, 2020

Temp ( °F °C ) Dew Point ( °F °C ) Humidity (%) Winds ( mph kmh ) Pressure ( in mb ) Visibility ( mi km ) Precip ( " mm )
12:53 am 00:53 Clear 34 1.1 28 -2.2 79 79 undefined N/A 30.09 1019 10 16 0.00 0.00
1:53 am 01:53 Clear 34 1.1 28 -2.2 79 79 N 5 7 30.08 1019 10 16 0.00 0.00
2:53 am 02:53 Clear 34 1.1 29 -1.7 82 82 NNW 7 11 30.06 1018 10 16 0.00 0.00
3:53 am 03:53 Clear 37 2.8 28 -2.2 70 70 WNW 3 6 30.04 1017 10 16 0.00 0.00
4:53 am 04:53 Clear 38 3.3 27 -2.8 65 65 NNW 7 11 30.07 1018 10 16 0.00 0.00
5:53 am 05:53 Clear 39 3.9 28 -2.2 65 65 NNW 5 7 30.07 1018 10 16 0.00 0.00
6:53 am 06:53 Sunny 40 4.4 28 -2.2 63 63 NNW 9 15 30.09 1019 10 16 0.00 0.00
7:53 am 07:53 Sunny 47 8.3 31 -0.6 54 54 WNW 6 9 30.09 1019 10 16 0.00 0.00
8:53 am 08:53 Sunny 57 13.9 31 -0.6 37 37 NW 6 9 30.08 1019 10 16 0.00 0.00
9:53 am 09:53 Sunny 63 17.2 29 -1.7 28 28 NNW 6 9 30.05 1018 10 16 0.00 0.00
10:53 am 10:53 Sunny 72 22.2 29 -1.7 20 20 WNW 9 15 30.02 1017 10 16 0.00 0.00
11:53 am 11:53 Sunny 77 25 29 -1.7 17 17 WNW 14 22 29.97 1015 10 16 0.00 0.00
12:53 pm 12:53 Sunny 80 26.7 21 -6.1 11 11 WNW 20 31 29.93 1014 10 16 0.00 0.00
1:53 pm 13:53 Sunny 80 26.7 22 -5.6 11 11 WNW 15 24 29.92 1013 10 16 0.00 0.00
2:53 pm 14:53 Sunny 80 26.7 23 -5 12 12 WNW 13 20 29.92 1013 10 16 0.00 0.00
3:53 pm 15:53 Sunny 76 24.4 27 -2.8 16 16 W 5 7 29.93 1014 10 16 0.00 0.00
4:53 pm 16:53 Clear 68 20 29 -1.7 23 23 W 3 6 29.96 1014 10 16 0.00 0.00
5:53 pm 17:53 Clear 65 18.3 29 -1.7 26 26 WNW 3 6 29.97 1015 10 16 0.00 0.00
6:53 pm 18:53 Clear 53 11.7 31 -0.6 43 43 NW 6 9 30.01 1016 10 16 0.00 0.00
7:53 pm 19:53 Clear 51 10.6 31 -0.6 46 46 NW 6 9 30.00 1016 10 16 0.00 0.00
8:53 pm 20:53 Clear 49 9.4 32 0 52 52 NW 5 7 29.99 1016 10 16 0.00 0.00
9:53 pm 21:53 Clear 51 10.6 31 -0.6 46 46 NNW 5 7 29.97 1015 10 16 0.00 0.00
10:53 pm 22:53 Clear 48 8.9 31 -0.6 52 52 N 8 13 29.96 1015 10 16 0.00 0.00
11:53 pm 23:53 Clear 42 5.6 30 -1.1 62 62 NW 3 6 29.96 1015 10 16 0.00 0.00

Powered by AerisWeather